Year,Month,Day,Hour,Minute,Value (Times are PST for temperature in C)
2015,03,07,00,00,5.70
2015,03,07,00,01,5.70
2015,03,07,00,02,5.70
2015,03,07,00,03,5.70
2015,03,07,00,04,5.70
2015,03,07,00,05,5.70
2015,03,07,00,06,5.70
2015,03,07,00,07,5.60
2015,03,07,00,08,5.60
2015,03,07,00,09,5.60
2015,03,07,00,10,5.50
2015,03,07,00,11,5.50
2015,03,07,00,12,5.50
2015,03,07,00,13,5.50
2015,03,07,00,14,5.40
2015,03,07,00,15,5.40
2015,03,07,00,16,5.40
2015,03,07,00,17,5.40
2015,03,07,00,18,5.50
2015,03,07,00,19,5.50
2015,03,07,00,20,5.50
2015,03,07,00,21,5.60
2015,03,07,00,22,5.60
2015,03,07,00,23,5.60
2015,03,07,00,24,5.60
2015,03,07,00,25,5.60
2015,03,07,00,26,5.60
2015,03,07,00,27,5.60
2015,03,07,00,28,5.70
2015,03,07,00,29,5.70
2015,03,07,00,30,5.70
2015,03,07,00,31,5.60
2015,03,07,00,32,5.60
2015,03,07,00,33,5.50
2015,03,07,00,34,5.50
2015,03,07,00,35,5.40
2015,03,07,00,36,5.40
2015,03,07,00,37,5.30
2015,03,07,00,38,5.30
2015,03,07,00,39,5.30
2015,03,07,00,40,5.30
2015,03,07,00,41,5.30
2015,03,07,00,42,5.20
2015,03,07,00,43,5.20
2015,03,07,00,44,5.10
2015,03,07,00,45,5.10
2015,03,07,00,46,5.10
2015,03,07,00,47,5.10
2015,03,07,00,48,5.10
2015,03,07,00,49,4.90
2015,03,07,00,50,4.90
2015,03,07,00,51,4.90
2015,03,07,00,52,4.90
2015,03,07,00,53,4.90
2015,03,07,00,54,4.80
2015,03,07,00,55,4.80
2015,03,07,00,56,4.80
2015,03,07,00,57,4.80
2015,03,07,00,58,4.90
2015,03,07,00,59,4.90
2015,03,07,01,00,4.90
2015,03,07,01,01,4.90
2015,03,07,01,02,4.90
2015,03,07,01,03,4.90
2015,03,07,01,04,4.90
2015,03,07,01,05,4.90
2015,03,07,01,06,4.90
2015,03,07,01,07,4.90
2015,03,07,01,08,4.90
2015,03,07,01,09,4.90
2015,03,07,01,10,4.90
2015,03,07,01,11,4.90
2015,03,07,01,12,4.90
2015,03,07,01,13,4.90
2015,03,07,01,14,4.90
2015,03,07,01,15,4.90
2015,03,07,01,16,5.00
2015,03,07,01,17,5.10
2015,03,07,01,18,5.10
2015,03,07,01,19,5.10
2015,03,07,01,20,5.10
2015,03,07,01,21,5.10
2015,03,07,01,22,5.10
2015,03,07,01,23,5.10
2015,03,07,01,24,5.10
2015,03,07,01,25,5.10
2015,03,07,01,26,5.20
2015,03,07,01,27,5.20
2015,03,07,01,28,5.20
2015,03,07,01,29,5.20
2015,03,07,01,30,5.20
2015,03,07,01,31,5.20
2015,03,07,01,32,5.10
2015,03,07,01,33,5.10
2015,03,07,01,34,5.10
2015,03,07,01,35,5.10
2015,03,07,01,36,5.10
2015,03,07,01,37,5.10
2015,03,07,01,38,5.10
2015,03,07,01,39,5.10
2015,03,07,01,40,5.20
2015,03,07,01,41,5.20
2015,03,07,01,42,5.20
2015,03,07,01,43,5.20
2015,03,07,01,44,5.30
2015,03,07,01,45,5.30
2015,03,07,01,46,5.20
2015,03,07,01,47,5.20
2015,03,07,01,48,5.20
2015,03,07,01,49,5.10
2015,03,07,01,50,5.10
2015,03,07,01,51,5.10
2015,03,07,01,52,5.10
2015,03,07,01,53,5.10
2015,03,07,01,54,5.00
2015,03,07,01,55,4.90
2015,03,07,01,56,4.90
2015,03,07,01,57,4.90
2015,03,07,01,58,5.10
2015,03,07,01,59,5.10
2015,03,07,02,00,5.10
2015,03,07,02,01,5.10
2015,03,07,02,02,5.10
2015,03,07,02,03,5.10
2015,03,07,02,04,5.10
2015,03,07,02,05,5.10
2015,03,07,02,06,5.10
2015,03,07,02,07,5.00
2015,03,07,02,08,4.90
2015,03,07,02,09,4.90
2015,03,07,02,10,4.90
2015,03,07,02,11,4.90
2015,03,07,02,12,4.90
2015,03,07,02,13,4.90
2015,03,07,02,14,4.80
2015,03,07,02,15,4.80
2015,03,07,02,16,4.80
2015,03,07,02,17,4.70
2015,03,07,02,18,4.70
2015,03,07,02,19,4.60
2015,03,07,02,20,4.60
2015,03,07,02,21,4.60
2015,03,07,02,22,4.60
2015,03,07,02,23,4.60
2015,03,07,02,24,4.60
2015,03,07,02,25,4.60
2015,03,07,02,26,4.60
2015,03,07,02,27,4.60
2015,03,07,02,28,4.60
2015,03,07,02,29,4.60
2015,03,07,02,30,4.60
2015,03,07,02,31,4.60
2015,03,07,02,32,4.60
2015,03,07,02,33,4.60
2015,03,07,02,34,4.60
2015,03,07,02,35,4.60
2015,03,07,02,36,4.60
2015,03,07,02,37,4.60
2015,03,07,02,38,4.50
2015,03,07,02,39,4.50
2015,03,07,02,40,4.50
2015,03,07,02,41,4.50
2015,03,07,02,42,4.50
2015,03,07,02,43,4.50
2015,03,07,02,44,4.50
2015,03,07,02,45,4.40
2015,03,07,02,46,4.40
2015,03,07,02,47,4.40
2015,03,07,02,48,4.40
2015,03,07,02,49,4.30
2015,03,07,02,50,4.30
2015,03,07,02,51,4.30
2015,03,07,02,52,4.20
2015,03,07,02,53,4.20
2015,03,07,02,54,4.20
2015,03,07,02,55,4.20
2015,03,07,02,56,4.30
2015,03,07,02,57,4.30
2015,03,07,02,58,4.40
2015,03,07,02,59,4.40
2015,03,07,03,00,4.40
2015,03,07,03,01,4.40
2015,03,07,03,02,4.40
2015,03,07,03,03,4.40
2015,03,07,03,04,4.50
2015,03,07,03,05,4.50
2015,03,07,03,06,4.60
2015,03,07,03,07,4.60
2015,03,07,03,08,4.60
2015,03,07,03,09,4.60
2015,03,07,03,10,4.60
2015,03,07,03,11,4.60
2015,03,07,03,12,4.60
2015,03,07,03,13,4.60
2015,03,07,03,14,4.60
2015,03,07,03,15,4.60
2015,03,07,03,16,4.60
2015,03,07,03,17,4.60
2015,03,07,03,18,4.60
2015,03,07,03,19,4.60
2015,03,07,03,20,4.60
2015,03,07,03,21,4.60
2015,03,07,03,22,4.60
2015,03,07,03,23,4.60
2015,03,07,03,24,4.60
2015,03,07,03,25,4.60
2015,03,07,03,26,4.60
2015,03,07,03,27,4.60
2015,03,07,03,28,4.60
2015,03,07,03,29,4.60
2015,03,07,03,30,4.60
2015,03,07,03,31,4.60
2015,03,07,03,32,4.60
2015,03,07,03,33,4.60
2015,03,07,03,34,4.60
2015,03,07,03,35,4.60
2015,03,07,03,36,4.60
2015,03,07,03,37,4.60
2015,03,07,03,38,4.60
2015,03,07,03,39,4.60
2015,03,07,03,40,4.60
2015,03,07,03,41,4.60
2015,03,07,03,42,4.60
2015,03,07,03,43,4.60
2015,03,07,03,44,4.60
2015,03,07,03,45,4.60
2015,03,07,03,46,4.60
2015,03,07,03,47,4.60
2015,03,07,03,48,4.60
2015,03,07,03,49,4.50
2015,03,07,03,50,4.50
2015,03,07,03,51,4.50
2015,03,07,03,52,4.50
2015,03,07,03,53,4.50
2015,03,07,03,54,4.40
2015,03,07,03,55,4.40
2015,03,07,03,56,4.40
2015,03,07,03,57,4.40
2015,03,07,03,58,4.40
2015,03,07,03,59,4.40
2015,03,07,04,00,4.40
2015,03,07,04,01,4.40
2015,03,07,04,02,4.40
2015,03,07,04,03,4.40
2015,03,07,04,04,4.40
2015,03,07,04,05,4.40
2015,03,07,04,06,4.40
2015,03,07,04,07,4.40
2015,03,07,04,08,4.30
2015,03,07,04,09,4.30
2015,03,07,04,10,4.30
2015,03,07,04,11,4.30
2015,03,07,04,12,4.30
2015,03,07,04,13,4.20
2015,03,07,04,14,4.20
2015,03,07,04,15,4.20
2015,03,07,04,16,4.20
2015,03,07,04,17,4.20
2015,03,07,04,18,4.10
2015,03,07,04,19,4.10
2015,03,07,04,20,4.00
2015,03,07,04,21,4.00
2015,03,07,04,22,4.00
2015,03,07,04,23,3.90
2015,03,07,04,24,3.90
2015,03,07,04,25,4.00
2015,03,07,04,26,4.00
2015,03,07,04,27,4.00
2015,03,07,04,28,4.10
2015,03,07,04,29,4.10
2015,03,07,04,30,4.20
2015,03,07,04,31,4.20
2015,03,07,04,32,4.30
2015,03,07,04,33,4.40
2015,03,07,04,34,4.40
2015,03,07,04,35,4.50
2015,03,07,04,36,4.50
2015,03,07,04,37,4.60
2015,03,07,04,38,4.60
2015,03,07,04,39,4.60
2015,03,07,04,40,4.60
2015,03,07,04,41,4.60
2015,03,07,04,42,4.60
2015,03,07,04,43,4.60
2015,03,07,04,44,4.60
2015,03,07,04,45,4.60
2015,03,07,04,46,4.50
2015,03,07,04,47,4.50
2015,03,07,04,48,4.40
2015,03,07,04,49,4.40
2015,03,07,04,50,4.40
2015,03,07,04,51,4.40
2015,03,07,04,52,4.40
2015,03,07,04,53,4.20
2015,03,07,04,54,3.90
2015,03,07,04,55,3.80
2015,03,07,04,56,3.80
2015,03,07,04,57,3.80
2015,03,07,04,58,3.70
2015,03,07,04,59,3.70
2015,03,07,05,00,3.70
2015,03,07,05,01,3.60
2015,03,07,05,02,3.60
2015,03,07,05,03,3.60
2015,03,07,05,04,3.60
2015,03,07,05,05,3.60
2015,03,07,05,06,3.60
2015,03,07,05,07,3.60
2015,03,07,05,08,3.60
2015,03,07,05,09,3.60
2015,03,07,05,10,3.50
2015,03,07,05,11,3.50
2015,03,07,05,12,3.40
2015,03,07,05,13,3.40
2015,03,07,05,14,3.30
2015,03,07,05,15,3.30
2015,03,07,05,16,3.30
2015,03,07,05,17,3.30
2015,03,07,05,18,3.40
2015,03,07,05,19,3.40
2015,03,07,05,20,3.40
2015,03,07,05,21,3.50
2015,03,07,05,22,3.50
2015,03,07,05,23,3.50
2015,03,07,05,24,3.50
2015,03,07,05,25,3.50
2015,03,07,05,26,3.40
2015,03,07,05,27,3.40
2015,03,07,05,28,3.40
2015,03,07,05,29,3.40
2015,03,07,05,30,3.40
2015,03,07,05,31,3.40
2015,03,07,05,32,3.40
2015,03,07,05,33,3.40
2015,03,07,05,34,3.40
2015,03,07,05,35,3.50
2015,03,07,05,36,3.50
2015,03,07,05,37,3.50
2015,03,07,05,38,3.40
2015,03,07,05,39,3.40
2015,03,07,05,40,3.50
2015,03,07,05,41,3.50
2015,03,07,05,42,3.50
2015,03,07,05,43,3.50
2015,03,07,05,44,3.40
2015,03,07,05,45,3.40
2015,03,07,05,46,3.40
2015,03,07,05,47,3.30
2015,03,07,05,48,3.30
2015,03,07,05,49,3.30
2015,03,07,05,50,3.30
2015,03,07,05,51,3.30
2015,03,07,05,52,3.30
2015,03,07,05,53,3.20
2015,03,07,05,54,3.20
2015,03,07,05,55,3.20
2015,03,07,05,56,3.20
2015,03,07,05,57,3.30
2015,03,07,05,58,3.30
2015,03,07,05,59,3.40
2015,03,07,06,00,3.40
2015,03,07,06,01,3.50
2015,03,07,06,02,3.60
2015,03,07,06,03,3.60
2015,03,07,06,04,3.70
2015,03,07,06,05,3.80
2015,03,07,06,06,3.80
2015,03,07,06,07,3.80
2015,03,07,06,08,3.80
2015,03,07,06,09,3.80
2015,03,07,06,10,3.80
2015,03,07,06,11,3.90
2015,03,07,06,12,3.90
2015,03,07,06,13,3.90
2015,03,07,06,14,3.90
2015,03,07,06,15,3.90
2015,03,07,06,16,3.90
2015,03,07,06,17,4.00
2015,03,07,06,18,4.00
2015,03,07,06,19,4.00
2015,03,07,06,20,4.00
2015,03,07,06,21,4.00
2015,03,07,06,22,4.10
2015,03,07,06,23,4.00
2015,03,07,06,24,4.00
2015,03,07,06,25,4.00
2015,03,07,06,26,4.00
2015,03,07,06,27,4.00
2015,03,07,06,28,4.00
2015,03,07,06,29,4.00
2015,03,07,06,30,4.00
2015,03,07,06,31,4.00
2015,03,07,06,32,3.90
2015,03,07,06,33,3.90
2015,03,07,06,34,3.80
2015,03,07,06,35,3.80
2015,03,07,06,36,3.80
2015,03,07,06,37,3.80
2015,03,07,06,38,3.80
2015,03,07,06,39,3.70
2015,03,07,06,40,3.70
2015,03,07,06,41,3.70
2015,03,07,06,42,3.70
2015,03,07,06,43,3.70
2015,03,07,06,44,3.70
2015,03,07,06,45,3.70
2015,03,07,06,46,3.60
2015,03,07,06,47,3.60
2015,03,07,06,48,3.60
2015,03,07,06,49,3.60
2015,03,07,06,50,3.60
2015,03,07,06,51,3.60
2015,03,07,06,52,3.70
2015,03,07,06,53,3.80
2015,03,07,06,54,3.90
2015,03,07,06,55,4.00
2015,03,07,06,56,4.10
2015,03,07,06,57,4.20
2015,03,07,06,58,4.30
2015,03,07,06,59,4.30
2015,03,07,07,00,4.40
2015,03,07,07,01,4.50
2015,03,07,07,02,4.50
2015,03,07,07,03,4.50
2015,03,07,07,04,4.60
2015,03,07,07,05,4.60
2015,03,07,07,06,4.60
2015,03,07,07,07,4.60
2015,03,07,07,08,4.60
2015,03,07,07,09,4.70
2015,03,07,07,10,4.70
2015,03,07,07,11,4.70
2015,03,07,07,12,4.80
2015,03,07,07,13,4.80
2015,03,07,07,14,4.80
2015,03,07,07,15,4.80
2015,03,07,07,16,4.80
2015,03,07,07,17,4.90
2015,03,07,07,18,4.90
2015,03,07,07,19,4.80
2015,03,07,07,20,4.80
2015,03,07,07,21,4.80
2015,03,07,07,22,4.80
2015,03,07,07,23,4.80
2015,03,07,07,24,4.70
2015,03,07,07,25,4.70
2015,03,07,07,26,4.80
2015,03,07,07,27,4.80
2015,03,07,07,28,4.80
2015,03,07,07,29,4.90
2015,03,07,07,30,4.90
2015,03,07,07,31,4.90
2015,03,07,07,32,5.10
2015,03,07,07,33,5.10
2015,03,07,07,34,5.10
2015,03,07,07,35,5.20
2015,03,07,07,36,5.30
2015,03,07,07,37,5.30
2015,03,07,07,38,5.30
2015,03,07,07,39,5.40
2015,03,07,07,40,5.40
2015,03,07,07,41,5.30
2015,03,07,07,42,5.30
2015,03,07,07,43,5.30
2015,03,07,07,44,5.20
2015,03,07,07,45,5.10
2015,03,07,07,46,5.10
2015,03,07,07,47,5.10
2015,03,07,07,48,5.10
2015,03,07,07,49,5.10
2015,03,07,07,50,5.10
2015,03,07,07,51,5.10
2015,03,07,07,52,5.10
2015,03,07,07,53,5.10
2015,03,07,07,54,5.10
2015,03,07,07,55,5.10
2015,03,07,07,56,5.20
2015,03,07,07,57,5.30
2015,03,07,07,58,5.30
2015,03,07,07,59,5.40
2015,03,07,08,00,5.40
2015,03,07,08,01,5.50
2015,03,07,08,02,5.50
2015,03,07,08,03,5.60
2015,03,07,08,04,5.60
2015,03,07,08,05,5.70
2015,03,07,08,06,5.70
2015,03,07,08,07,5.70
2015,03,07,08,08,5.70
2015,03,07,08,09,5.80
2015,03,07,08,10,5.80
2015,03,07,08,11,5.80
2015,03,07,08,12,5.80
2015,03,07,08,13,5.80
2015,03,07,08,14,5.90
2015,03,07,08,15,5.90
2015,03,07,08,16,5.90
2015,03,07,08,17,6.00
2015,03,07,08,18,6.00
2015,03,07,08,19,6.00
2015,03,07,08,20,6.10
2015,03,07,08,21,6.10
2015,03,07,08,22,6.20
2015,03,07,08,23,6.30
2015,03,07,08,24,6.40
2015,03,07,08,25,6.40
2015,03,07,08,26,6.60
2015,03,07,08,27,6.60
2015,03,07,08,28,6.70
2015,03,07,08,29,6.80
2015,03,07,08,30,6.80
2015,03,07,08,31,6.90
2015,03,07,08,32,7.00
2015,03,07,08,33,7.00
2015,03,07,08,34,7.10
2015,03,07,08,35,7.20
2015,03,07,08,36,7.30
2015,03,07,08,37,7.30
2015,03,07,08,38,7.30
2015,03,07,08,39,7.40
2015,03,07,08,40,7.40
2015,03,07,08,41,7.50
2015,03,07,08,42,7.60
2015,03,07,08,43,7.60
2015,03,07,08,44,7.70
2015,03,07,08,45,7.80
2015,03,07,08,46,7.80
2015,03,07,08,47,7.80
2015,03,07,08,48,7.90
2015,03,07,08,49,7.90
2015,03,07,08,50,8.00
2015,03,07,08,51,8.00
2015,03,07,08,52,7.90
2015,03,07,08,53,7.90
2015,03,07,08,54,7.90
2015,03,07,08,55,7.90
2015,03,07,08,56,7.90
2015,03,07,08,57,7.80
2015,03,07,08,58,7.80
2015,03,07,08,59,7.80
2015,03,07,09,00,7.80
2015,03,07,09,01,7.90
2015,03,07,09,02,7.90
2015,03,07,09,03,8.00
2015,03,07,09,04,8.00
2015,03,07,09,05,8.10
2015,03,07,09,06,8.10
2015,03,07,09,07,8.20
2015,03,07,09,08,8.20
2015,03,07,09,09,8.30
2015,03,07,09,10,8.50
2015,03,07,09,11,8.60
2015,03,07,09,12,8.70
2015,03,07,09,13,8.80
2015,03,07,09,14,8.90
2015,03,07,09,15,9.00
2015,03,07,09,16,9.10
2015,03,07,09,17,9.20
2015,03,07,09,18,9.30
2015,03,07,09,19,9.30
2015,03,07,09,20,9.40
2015,03,07,09,21,9.40
2015,03,07,09,22,9.30
2015,03,07,09,23,9.30
2015,03,07,09,24,9.30
2015,03,07,09,25,9.30
2015,03,07,09,26,9.30
2015,03,07,09,27,9.30
2015,03,07,09,28,9.40
2015,03,07,09,29,9.40
2015,03,07,09,30,9.50
2015,03,07,09,31,9.50
2015,03,07,09,32,9.50
2015,03,07,09,33,9.50
2015,03,07,09,34,9.50
2015,03,07,09,35,9.60
2015,03,07,09,36,9.60
2015,03,07,09,37,9.70
2015,03,07,09,38,9.70
2015,03,07,09,39,9.70
2015,03,07,09,40,9.70
2015,03,07,09,41,9.80
2015,03,07,09,42,9.80
2015,03,07,09,43,9.90
2015,03,07,09,44,10.00
2015,03,07,09,45,10.10
2015,03,07,09,46,10.10
2015,03,07,09,47,10.20
2015,03,07,09,48,10.30
2015,03,07,09,49,10.40
2015,03,07,09,50,10.40
2015,03,07,09,51,10.50
2015,03,07,09,52,10.60
2015,03,07,09,53,10.60
2015,03,07,09,54,10.70
2015,03,07,09,55,10.70
2015,03,07,09,56,10.60
2015,03,07,09,57,10.70
2015,03,07,09,58,10.70
2015,03,07,09,59,10.70
2015,03,07,10,00,10.70
2015,03,07,10,01,10.70
2015,03,07,10,02,10.80
2015,03,07,10,03,10.80
2015,03,07,10,04,10.80
2015,03,07,10,05,10.90
2015,03,07,10,06,10.90
2015,03,07,10,07,10.90
2015,03,07,10,08,11.00
2015,03,07,10,09,11.10
2015,03,07,10,10,11.10
2015,03,07,10,11,11.10
2015,03,07,10,12,11.20
2015,03,07,10,13,11.20
2015,03,07,10,14,11.30
2015,03,07,10,15,11.40
2015,03,07,10,16,11.40
2015,03,07,10,17,11.50
2015,03,07,10,18,11.60
2015,03,07,10,19,11.60
2015,03,07,10,20,11.60
2015,03,07,10,21,11.60
2015,03,07,10,22,11.70
2015,03,07,10,23,11.70
2015,03,07,10,24,11.70
2015,03,07,10,25,11.70
2015,03,07,10,26,11.70
2015,03,07,10,27,11.70
2015,03,07,10,28,11.70
2015,03,07,10,29,11.80
2015,03,07,10,30,11.80
2015,03,07,10,31,11.80
2015,03,07,10,32,11.70
2015,03,07,10,33,11.70
2015,03,07,10,34,11.70
2015,03,07,10,35,11.80
2015,03,07,10,36,11.80
2015,03,07,10,37,11.80
2015,03,07,10,38,11.80
2015,03,07,10,39,11.80
2015,03,07,10,40,11.90
2015,03,07,10,41,11.90
2015,03,07,10,42,12.00
2015,03,07,10,43,12.10
2015,03,07,10,44,12.10
2015,03,07,10,45,12.20
2015,03,07,10,46,12.20
2015,03,07,10,47,12.20
2015,03,07,10,48,12.20
2015,03,07,10,49,12.20
2015,03,07,10,50,12.20
2015,03,07,10,51,12.20
2015,03,07,10,52,12.10
2015,03,07,10,53,12.10
2015,03,07,10,54,12.10
2015,03,07,10,55,12.10
2015,03,07,10,56,12.10
2015,03,07,10,57,12.20
2015,03,07,10,58,12.20
2015,03,07,10,59,12.20
2015,03,07,11,00,12.30
2015,03,07,11,01,12.30
2015,03,07,11,02,12.30
2015,03,07,11,03,12.40
2015,03,07,11,04,12.40
2015,03,07,11,05,12.40
2015,03,07,11,06,12.40
2015,03,07,11,07,12.30
2015,03,07,11,08,12.30
2015,03,07,11,09,12.30
2015,03,07,11,10,12.30
2015,03,07,11,11,12.30
2015,03,07,11,12,12.30
2015,03,07,11,13,12.30
2015,03,07,11,14,12.30
2015,03,07,11,15,12.30
2015,03,07,11,16,12.30
2015,03,07,11,17,12.30
2015,03,07,11,18,12.40
2015,03,07,11,19,12.50
2015,03,07,11,20,12.50
2015,03,07,11,21,12.60
2015,03,07,11,22,12.60
2015,03,07,11,23,12.70
2015,03,07,11,24,12.80
2015,03,07,11,25,12.80
2015,03,07,11,26,12.80
2015,03,07,11,27,12.80
2015,03,07,11,28,12.80
2015,03,07,11,29,12.80
2015,03,07,11,30,12.70
2015,03,07,11,31,12.60
2015,03,07,11,32,12.60
2015,03,07,11,33,12.60
2015,03,07,11,34,12.70
2015,03,07,11,35,12.80
2015,03,07,11,36,12.80
2015,03,07,11,37,12.80
2015,03,07,11,38,12.80
2015,03,07,11,39,12.80
2015,03,07,11,40,12.80
2015,03,07,11,41,12.80
2015,03,07,11,42,12.80
2015,03,07,11,43,12.80
2015,03,07,11,44,12.90
2015,03,07,11,45,13.00
2015,03,07,11,46,13.00
2015,03,07,11,47,13.10
2015,03,07,11,48,13.10
2015,03,07,11,49,13.20
2015,03,07,11,50,13.20
2015,03,07,11,51,13.30
2015,03,07,11,52,13.30
2015,03,07,11,53,13.30
2015,03,07,11,54,13.30
2015,03,07,11,55,13.40
2015,03,07,11,56,13.50
2015,03,07,11,57,13.50
2015,03,07,11,58,13.60
2015,03,07,11,59,13.50
2015,03,07,12,00,13.40
2015,03,07,12,01,13.30
2015,03,07,12,02,13.10
2015,03,07,12,03,13.00
2015,03,07,12,04,12.90
2015,03,07,12,05,12.80
2015,03,07,12,06,12.80
2015,03,07,12,07,12.80
2015,03,07,12,08,12.80
2015,03,07,12,09,12.80
2015,03,07,12,10,12.80
2015,03,07,12,11,12.90
2015,03,07,12,12,13.00
2015,03,07,12,13,13.00
2015,03,07,12,14,13.00
2015,03,07,12,15,13.10
2015,03,07,12,16,13.20
2015,03,07,12,17,13.30
2015,03,07,12,18,13.30
2015,03,07,12,19,13.40
2015,03,07,12,20,13.40
2015,03,07,12,21,13.40
2015,03,07,12,22,13.40
2015,03,07,12,23,13.50
2015,03,07,12,24,13.50
2015,03,07,12,25,13.50
2015,03,07,12,26,13.40
2015,03,07,12,27,13.40
2015,03,07,12,28,13.30
2015,03,07,12,29,13.40
2015,03,07,12,30,13.50
2015,03,07,12,31,13.60
2015,03,07,12,32,13.60
2015,03,07,12,33,13.70
2015,03,07,12,34,13.80
2015,03,07,12,35,13.80
2015,03,07,12,36,13.90
2015,03,07,12,37,14.00
2015,03,07,12,38,14.10
2015,03,07,12,39,14.20
2015,03,07,12,40,14.20
2015,03,07,12,41,14.20
2015,03,07,12,42,14.10
2015,03,07,12,43,14.10
2015,03,07,12,44,14.10
2015,03,07,12,45,14.10
2015,03,07,12,46,14.00
2015,03,07,12,47,14.00
2015,03,07,12,48,14.00
2015,03,07,12,49,13.90
2015,03,07,12,50,13.90
2015,03,07,12,51,13.90
2015,03,07,12,52,13.90
2015,03,07,12,53,14.00
2015,03,07,12,54,14.00
2015,03,07,12,55,14.00
2015,03,07,12,56,14.10
2015,03,07,12,57,14.20
2015,03,07,12,58,14.20
2015,03,07,12,59,14.20
2015,03,07,13,00,14.20
2015,03,07,13,01,14.30
2015,03,07,13,02,14.30
2015,03,07,13,03,14.30
2015,03,07,13,04,14.30
2015,03,07,13,05,14.40
2015,03,07,13,06,14.50
2015,03,07,13,07,14.50
2015,03,07,13,08,14.50
2015,03,07,13,09,14.50
2015,03,07,13,10,14.40
2015,03,07,13,11,14.40
2015,03,07,13,12,14.40
2015,03,07,13,13,14.40
2015,03,07,13,14,14.40
2015,03,07,13,15,14.50
2015,03,07,13,16,14.60
2015,03,07,13,17,14.60
2015,03,07,13,18,14.60
2015,03,07,13,19,14.50
2015,03,07,13,20,14.40
2015,03,07,13,21,14.20
2015,03,07,13,22,14.10
2015,03,07,13,23,14.00
2015,03,07,13,24,14.00
2015,03,07,13,25,13.90
2015,03,07,13,26,13.90
2015,03,07,13,27,13.90
2015,03,07,13,28,13.80
2015,03,07,13,29,13.70
2015,03,07,13,30,13.70
2015,03,07,13,31,13.70
2015,03,07,13,32,13.70
2015,03,07,13,33,13.70
2015,03,07,13,34,13.60
2015,03,07,13,35,13.60
2015,03,07,13,36,13.50
2015,03,07,13,37,13.50
2015,03,07,13,38,13.30
2015,03,07,13,39,13.30
2015,03,07,13,40,13.30
2015,03,07,13,41,13.30
2015,03,07,13,42,13.30
2015,03,07,13,43,13.30
2015,03,07,13,44,13.20
2015,03,07,13,45,13.10
2015,03,07,13,46,13.10
2015,03,07,13,47,13.00
2015,03,07,13,48,12.90
2015,03,07,13,49,12.80
2015,03,07,13,50,12.90
2015,03,07,13,51,12.90
2015,03,07,13,52,12.90
2015,03,07,13,53,13.00
2015,03,07,13,54,13.00
2015,03,07,13,55,13.00
2015,03,07,13,56,13.00
2015,03,07,13,57,13.10
2015,03,07,13,58,13.10
2015,03,07,13,59,13.00
2015,03,07,14,00,12.90
2015,03,07,14,01,12.90
2015,03,07,14,02,12.80
2015,03,07,14,03,12.80
2015,03,07,14,04,12.70
2015,03,07,14,05,12.70
2015,03,07,14,06,12.70
2015,03,07,14,07,12.60
2015,03,07,14,08,12.60
2015,03,07,14,09,12.60
2015,03,07,14,10,12.60
2015,03,07,14,11,12.60
2015,03,07,14,12,12.60
2015,03,07,14,13,12.60
2015,03,07,14,14,12.60
2015,03,07,14,15,12.50
2015,03,07,14,16,12.50
2015,03,07,14,17,12.50
2015,03,07,14,18,12.60
2015,03,07,14,19,12.70
2015,03,07,14,20,12.70
2015,03,07,14,21,12.80
2015,03,07,14,22,12.80
2015,03,07,14,23,12.80
2015,03,07,14,24,12.80
2015,03,07,14,25,12.80
2015,03,07,14,26,12.80
2015,03,07,14,27,12.80
2015,03,07,14,28,12.90
2015,03,07,14,29,13.00
2015,03,07,14,30,13.10
2015,03,07,14,31,13.10
2015,03,07,14,32,13.10
2015,03,07,14,33,13.10
2015,03,07,14,34,13.10
2015,03,07,14,35,13.10
2015,03,07,14,36,13.00
2015,03,07,14,37,13.00
2015,03,07,14,38,12.90
2015,03,07,14,39,12.90
2015,03,07,14,40,12.80
2015,03,07,14,41,12.80
2015,03,07,14,42,12.80
2015,03,07,14,43,12.80
2015,03,07,14,44,12.80
2015,03,07,14,45,12.90
2015,03,07,14,46,12.90
2015,03,07,14,47,12.90
2015,03,07,14,48,12.80
2015,03,07,14,49,12.80
2015,03,07,14,50,12.80
2015,03,07,14,51,12.80
2015,03,07,14,52,12.80
2015,03,07,14,53,12.70
2015,03,07,14,54,12.60
2015,03,07,14,55,12.60
2015,03,07,14,56,12.60
2015,03,07,14,57,12.60
2015,03,07,14,58,12.50
2015,03,07,14,59,12.50
2015,03,07,15,00,12.40
2015,03,07,15,01,12.30
2015,03,07,15,02,12.30
2015,03,07,15,03,12.30
2015,03,07,15,04,12.30
2015,03,07,15,05,12.20
2015,03,07,15,06,12.30
2015,03,07,15,07,12.30
2015,03,07,15,08,12.30
2015,03,07,15,09,12.30
2015,03,07,15,10,12.30
2015,03,07,15,11,12.30
2015,03,07,15,12,12.20
2015,03,07,15,13,12.20
2015,03,07,15,14,12.10
2015,03,07,15,15,12.00
2015,03,07,15,16,12.00
2015,03,07,15,17,12.00
2015,03,07,15,18,12.10
2015,03,07,15,19,12.10
2015,03,07,15,20,12.20
2015,03,07,15,21,12.20
2015,03,07,15,22,12.20
2015,03,07,15,23,12.30
2015,03,07,15,24,12.30
2015,03,07,15,25,12.30
2015,03,07,15,26,12.30
2015,03,07,15,27,12.40
2015,03,07,15,28,12.40
2015,03,07,15,29,12.40
2015,03,07,15,30,12.30
2015,03,07,15,31,12.30
2015,03,07,15,32,12.30
2015,03,07,15,33,12.40
2015,03,07,15,34,12.40
2015,03,07,15,35,12.40
2015,03,07,15,36,12.40
2015,03,07,15,37,12.40
2015,03,07,15,38,12.50
2015,03,07,15,39,12.50
2015,03,07,15,40,12.50
2015,03,07,15,41,12.50
2015,03,07,15,42,12.50
2015,03,07,15,43,12.40
2015,03,07,15,44,12.40
2015,03,07,15,45,12.40
2015,03,07,15,46,12.40
2015,03,07,15,47,12.50
2015,03,07,15,48,12.50
2015,03,07,15,49,12.60
2015,03,07,15,50,12.60
2015,03,07,15,51,12.60
2015,03,07,15,52,12.50
2015,03,07,15,53,12.50
2015,03,07,15,54,12.50
2015,03,07,15,55,12.50
2015,03,07,15,56,12.40
2015,03,07,15,57,12.40
2015,03,07,15,58,12.40
2015,03,07,15,59,12.40
2015,03,07,16,00,12.40
2015,03,07,16,01,12.40
2015,03,07,16,02,12.40
2015,03,07,16,03,12.40
2015,03,07,16,04,12.50
2015,03,07,16,05,12.40
2015,03,07,16,06,12.40
2015,03,07,16,07,12.30
2015,03,07,16,08,12.30
2015,03,07,16,09,12.40
2015,03,07,16,10,12.40
2015,03,07,16,11,12.50
2015,03,07,16,12,12.60
2015,03,07,16,13,12.60
2015,03,07,16,14,12.70
2015,03,07,16,15,12.80
2015,03,07,16,16,12.80
2015,03,07,16,17,12.80
2015,03,07,16,18,12.80
2015,03,07,16,19,12.80
2015,03,07,16,20,12.80
2015,03,07,16,21,12.80
2015,03,07,16,22,12.80
2015,03,07,16,23,12.80
2015,03,07,16,24,12.80
2015,03,07,16,25,12.80
2015,03,07,16,26,12.80
2015,03,07,16,27,12.80
2015,03,07,16,28,12.70
2015,03,07,16,29,12.70
2015,03,07,16,30,12.80
2015,03,07,16,31,12.80
2015,03,07,16,32,12.80
2015,03,07,16,33,12.80
2015,03,07,16,34,12.80
2015,03,07,16,35,12.80
2015,03,07,16,36,12.90
2015,03,07,16,37,12.90
2015,03,07,16,38,13.00
2015,03,07,16,39,13.00
2015,03,07,16,40,13.10
2015,03,07,16,41,13.10
2015,03,07,16,42,13.10
2015,03,07,16,43,13.10
2015,03,07,16,44,13.10
2015,03,07,16,45,13.00
2015,03,07,16,46,13.00
2015,03,07,16,47,12.90
2015,03,07,16,48,12.90
2015,03,07,16,49,12.80
2015,03,07,16,50,12.80
2015,03,07,16,51,12.80
2015,03,07,16,52,12.80
2015,03,07,16,53,12.80
2015,03,07,16,54,12.80
2015,03,07,16,55,12.80
2015,03,07,16,56,12.80
2015,03,07,16,57,12.80
2015,03,07,16,58,12.80
2015,03,07,16,59,12.80
2015,03,07,17,00,12.70
2015,03,07,17,01,12.70
2015,03,07,17,02,12.60
2015,03,07,17,03,12.60
2015,03,07,17,04,12.60
2015,03,07,17,05,12.60
2015,03,07,17,06,12.60
2015,03,07,17,07,12.60
2015,03,07,17,08,12.60
2015,03,07,17,09,12.50
2015,03,07,17,10,12.50
2015,03,07,17,11,12.50
2015,03,07,17,12,12.50
2015,03,07,17,13,12.50
2015,03,07,17,14,12.40
2015,03,07,17,15,12.40
2015,03,07,17,16,12.40
2015,03,07,17,17,12.50
2015,03,07,17,18,12.50
2015,03,07,17,19,12.50
2015,03,07,17,20,12.50
2015,03,07,17,21,12.50
2015,03,07,17,22,12.60
2015,03,07,17,23,12.60
2015,03,07,17,24,12.60
2015,03,07,17,25,12.60
2015,03,07,17,26,12.70
2015,03,07,17,27,12.70
2015,03,07,17,28,12.70
2015,03,07,17,29,12.70
2015,03,07,17,30,12.60
2015,03,07,17,31,12.60
2015,03,07,17,32,12.50
2015,03,07,17,33,12.50
2015,03,07,17,34,12.40
2015,03,07,17,35,12.30
2015,03,07,17,36,12.30
2015,03,07,17,37,12.20
2015,03,07,17,38,12.10
2015,03,07,17,39,12.00
2015,03,07,17,40,12.00
2015,03,07,17,41,11.90
2015,03,07,17,42,11.80
2015,03,07,17,43,11.80
2015,03,07,17,44,11.70